This demonstration page uses our WeatherBlox Daily Observations layout. Learn more.

41.55636, -103.73856

Hourly Observations for July 27, 2019

Temp ( °F °C ) Dew Point ( °F °C ) Humidity (%) Winds ( mph kmh ) Pressure ( in mb ) Visibility ( mi km ) Precip ( " mm )
12:58 am 00:58 Mostly Cloudy 78 25.5 56 13.1 46 46 WNW 13 20 30.04 1017 10 16.0934 0 0
1:58 am 01:58 Mostly Cloudy with Light Showers 66 18.9 57 13.9 73 73 W 16 26 30.06 1018 10 16.0934 0.01 0.254
2:58 am 02:58 Mostly Cloudy 69 20.8 55 12.8 60 60 Calm 30.04 1017 10 16.0934 0 0
3:58 am 03:58 Mostly Cloudy 69 20.7 52 11.3 55 55 N 9 15 30.06 1018 10 16.0934 0 0
4:58 am 04:58 Mostly Cloudy 67 19.2 55 12.6 66 66 SSW 8 13 30.08 1019 10 16.0934 0 0
5:58 am 05:58 Mostly Cloudy 66 19.1 55 12.8 67 67 NW 8 13 30.06 1018 10 16.0934 0 0
6:58 am 06:58 Mostly Cloudy 65 18.4 55 12.8 70 70 W 7 11 30.06 1018 10 16.0934 0 0
7:58 am 07:58 Mostly Cloudy 64 18 56 13.3 74 74 SW 7 11 30.04 1017 10 16.0934 0 0
8:58 am 08:58 Mostly Cloudy 63 17.3 56 13.4 78 78 SW 13 20 30.04 1017 10 16.0934 0 0
9:58 am 09:58 Mostly Cloudy 66 18.9 54 12.1 65 65 SW 13 20 30.01 1016 10 16.0934 0 0
10:58 am 10:58 Mostly Cloudy 68 20.1 53 11.6 58 58 WSW 12 19 30 1016 10 16.0934 0 0
11:58 am 11:58 Cloudy 65 18.5 54 12.1 66 66 NE 7 11 30.01 1016 10 16.0934 0 0
3:58 pm 15:58 Mostly Cloudy with Showers 65 18.4 58 14.5 78 78 N 5 7 30.07 1018 10 16.0934 0.02 0.508
4:58 pm 16:58 Cloudy 68 19.9 61 16.1 79 79 SSW 8 13 30.09 1019 10 16.0934 0 0
5:58 pm 17:58 Mostly Cloudy 69 20.6 62 16.9 79 79 SSE 7 11 30.06 1018 10 16.0934 0.01 0.254
6:58 pm 18:58 Mostly Cloudy 74 23.6 56 13.3 53 53 S 14 22 30.05 1018 10 16.0934 0 0
7:58 pm 19:58 Sunny 81 27.1 56 13.1 42 42 SSE 17 28 29.99 1016 10 16.0934 0 0
8:58 pm 20:58 Mostly Sunny 82 28 55 12.8 39 39 SE 15 24 29.98 1015 10 16.0934 0 0
9:58 pm 21:58 Sunny 80 26.6 56 13.4 44 44 SSE 9 15 29.98 1015 10 16.0934 0 0
10:58 pm 22:58 Mostly Cloudy with Light Rain 70 21 56 13.2 61 61 WNW 17 28 30.02 1017 10 16.0934 0 0
11:58 pm 23:58 Partly Cloudy with Light Thunderstorms 67 19.7 60 15.4 76 76 WSW 6 9 29.99 1016 10 16.0934 0.02 0.508

Powered by AerisWeather